Regional Weather Roundup
Issued by NWS

Home | Current Version | Previous Version | Text Only | Print | Product List | Glossary Off
Versions: 1 2 3 4 5 6 7 8 9 10 11 12 13 14 15 16 17 18 19 20 21 22 23 24 25 26 27

000
ASUS45 KCYS 270410
RWRWY

WYOMING REGIONAL WEATHER ROUNDUP
NATIONAL WEATHER SERVICE CHEYENNE WY
900 PM MST SUN FEB 26 2017

NOTE:  "FAIR" INDICATES FEW OR NO CLOUDS BELOW 12,000 FEET
WITH NO SIGNIFICANT WEATHER AND/OR OBSTRUCTIONS TO VISIBILITY.

WYZ001-270500-
YELLOWSTONE NATIONAL PARK

CITY           SKY/WX    TMP DP  RH WIND       PRES   REMARKS
LK YELLOWSTONE   N/A     10   8  92 VRB3      29.58F
W YELLOWSTONE  NOT AVBL

$$
WYZ002>013-054>058-071-098>099-270500-
NORTHERN WYOMING

CITY           SKY/WX    TMP DP  RH WIND       PRES   REMARKS
JACKSON        CLOUDY    18  16  93 W9        29.66R WCI   6
CODY           FAIR      22  11  62 S12       29.62F WCI  10
GREYBULL       CLOUDY    27  17  66 E5        29.67S WCI  22
WORLAND        FAIR      23  14  68 SE12      29.67F WCI  12
SHERIDAN       MOCLDY    23  16  74 S12       29.65S WCI  12
BUFFALO        FAIR      21   4  47 W5        29.64F WCI  15
GILLETTE       FAIR      22  12  65 S9        29.67S WCI  12
HULETT         MOCLDY    27  14  59 S5        29.71S WCI  21
NEWCASTLE      FAIR      21  10  63 SE6       29.75R WCI  14

$$
WYZ014>020-022>026-101>103-270500-
CENTRAL WYOMING

CITY           SKY/WX    TMP DP  RH WIND       PRES   REMARKS
BIG PINEY      CLOUDY     4   0  83 E6        29.70F WCI  -7
PINEDALE       CLOUDY     5   1  85 CALM      29.71F
DUBOIS         CLOUDY    14   3  62 N18       29.57F WCI  -3
LANDER         FAIR      16  -1  47 VRB7      29.63F WCI   6
RIVERTON       FAIR       9   1  70 CALM      29.67R
CASPER         FAIR      20   7  57 SW18      29.69R WCI   5
DOUGLAS        FAIR      14  -1  51 VRB3      29.73R

$$
WYZ021-027>030-104>119-270500-
SOUTHERN WYOMING

CITY           SKY/WX    TMP DP  RH WIND       PRES   REMARKS
EVANSTON       CLOUDY    20   9  62 SW5       29.65F WCI  13
FORT BRIDGER   MOCLDY    14   5  67 SE5       29.70S WCI   7
ROCK SPRINGS   FAIR      15  -3  44 E5        29.71F WCI   8
DIXON            N/A     23   6  48 S10G18    29.78S WCI  12
RAWLINS        FAIR      10   0  63 W8        29.72F WCI  -2
SARATOGA       FAIR      10   0  61 E6        29.72S WCI   1
LARAMIE        FAIR      20   2  45 SE10      29.70F WCI   9
CHEYENNE       FAIR      10   3  73 W7        29.76S WCI  -1
TORRINGTON     FAIR      15   6  67 SE5       29.79S WCI   8
PINE BLUFFS    FAIR      19   9  63 S7        29.80S WCI  10

$$




USA.gov is the U.S. government's official web portal to all federal, state and local government web resources and services.